Location: Newark
(11.2914°S, 14.4718°E)
Time: 03:13:08
(UTC+00:00)

Tiros 1 despin weight - Pass Details

Date: 21 September 2019
Orbit: 594 x 643 km, 48.2° (Epoch: 15 October)

Event Time Altitude Azimuth Distance (km) Brightness Sun altitude
Rises 05:39:34 0° 191° (S) 2,953 ? 10.7°
Reaches altitude 10° 05:43:30 10° 158° (SSE) 2,039 ? 11.6°
Maximum altitude 05:45:11 12° 137° (SE) 1,920 ? 12.0°
Drops below altitude 10° 05:46:53 10° 116° (ESE) 2,033 ? 12.5°
Sets 05:50:46 0° 84° (E) 2,930 ? 13.4°
